Flag for Japan Weather past 2 weeks in Fukushima, Japan

Now
29 °F

Light snow. Overcast.


Feels Like: 26 °F
Forecast: 29 / 35 °F
Wind: 3 mph from Southwest

Location: Wakamatsu

Current Time: Feb 1, 2015 at 12:33:36 AM

Latest Report: Jan 31, 2015 at 11:00 PM


Visibility: 3 mi

Pressure: 30.10 "Hg

Humidity: 92%

Dew point: 28 °F

Location of FukushimaLocation

Historic Weather in Fukushima — Graph

°F

Fukushima temperature yesterday

Maximum temperature yesterday: 38 °F (at 12:00 PM)
Minimum temperature yesterday: 29 °F (at 2:00 AM)
Average temperature yesterday: 32 °F

Past Weeks' High & Low Weather Summary

 TemperatureHumidityPressure
High42 °F (Jan 27, 1:00 PM)98% (Jan 23, 2:00 AM)30.52 "Hg (Jan 23, 2:00 AM)
Low12 °F (Jan 21, 7:00 AM)52% (Jan 20, 3:00 PM)29.64 "Hg (Jan 23, 3:00 AM)
Average30 °F83%30.10 "Hg
* Reported Jan 16 11:00 PM — Jan 31 11:00 PM, Fukushima, Weather by CustomWeather, © 2014

Note: Actual official high and low records may vary slightly from our data, if they occured in-between our weather recording intervals... More about our weather records

Advertising

Fukushima weather history for previous 24 hours

 ConditionsComfort  
Time TempWeatherWind HumidityBarometerVisibility
11:00 PM
Jan 31
29 °FLight snow. Overcast.3 mph92%30.10 "Hg3 mi
10:00 PM31 °FLight snow. Overcast.8 mph87%30.09 "Hg2 mi
9:00 PM32 °FLight snow. Overcast.9 mph75%30.07 "Hg12 mi
8:00 PM32 °FLight snow. Overcast.9 mph78%30.04 "Hg12 mi
7:00 PM32 °FLight snow. Overcast.8 mph87%30.02 "Hg2 mi
6:00 PM33 °FLight snow. Overcast.14 mph78%29.99 "Hg12 mi
5:00 PM33 °FLight snow. Cloudy.15 mph79%29.96 "Hg7 mi
4:00 PM34 °FLight snow. Cloudy.16 mph75%29.92 "Hg12 mi
3:00 PM36 °FFreezing rain. Cloudy.18 mph75%29.90 "Hg12 mi
2:00 PM34 °FFreezing rain. Cloudy.21 mph88%29.88 "Hg1 mi
1:00 PM36 °FFreezing rain. Cloudy.16 mph81%29.86 "Hg3 mi
12:00 PM38 °FFreezing rain. Cloudy.8 mph71%29.84 "Hg12 mi
11:00 AM33 °FLight rain. Cloudy.5 mph92%29.87 "Hg1 mi
10:00 AM32 °FFreezing rain. Cloudy.3 mph91%29.89 "Hg1 mi
9:00 AM32 °FFreezing rain. Cloudy.7 mph91%29.90 "Hg2 mi
8:00 AM33 °FFreezing rain. Cloudy.10 mph95%29.90 "Hg1 mi
7:00 AM33 °FFreezing rain. Cloudy.7 mph91%29.88 "Hg6 mi
5:00 AM34 °FFreezing rain. Overcast.3 mph97%29.81 "Hg2 mi
4:00 AM31 °FLight rain. Overcast.3 mph97%29.79 "Hg1 mi
3:00 AM30 °FLight snow. Overcast.2 mph97%29.78 "Hg1 mi
2:00 AM29 °FFog.2 mph96%29.81 "Hg1 mi
1:00 AM30 °FFog.3 mph96%29.82 "Hg1 mi
12:00 AM31 °FChilly.1 mph96%29.85 "Hg2 mi
Weather by CustomWeather, © 2014

See weather overviewHow to use our weather pages